カタログに戻る

COSMOS 2251 DEB

運用中LEO
NORAD 40239·DEBRIS·🇷🇺 Russia

打ち上げ Jun 16, 1993 から Plesetsk Cosmodrome

Loading…

次のパス (今後24時間)

TLE

経年Source: Space-Track

元期: Sep 9, 2026, 23:41 UTC

1 40239U 93036BVU 26252.98707269  .00000835  00000-0  16142-3 0  9997
2 40239  74.0282 115.9398 0085144 160.2234 267.9449 14.62793324635768

AllMySatでCOSMOS 2251 DEBをリアルタイム追跡

Download on the App Store